FW9028 Weather Reports


Display with metric or nautical units.
time (UTC)temp
F
wind
direction
speed
MPH
gust
MPH
rain 1hr
in
rain 24hr
in
rain mn
in
humidity
%
barometer
mb
20260509091053 90 149 6.0 19.0 0.00 0.00 0.00 66 1008.1
20260509090553 90 170 6.0 19.0 0.00 0.00 0.00 66 1008.0
20260509090053 90 163 3.0 16.0 0.00 0.00 0.00 65 1008.0
20260509085553 91 86 8.0 16.0 0.00 0.00 0.00 64 1007.9
20260509085053 91 111 6.0 18.0 0.00 0.00 0.00 63 1007.9
20260509084053 92 116 3.0 17.0 0.00 0.00 0.00 62 1007.9
20260509083053 92 159 3.0 19.0 0.00 0.00 0.00 62 1007.7
20260509082553 92 115 12.0 19.0 0.00 0.00 0.00 62 1007.8
20260509082053 92 144 4.0 15.0 0.00 0.00 0.00 63 1007.8
20260509081554 93 144 6.0 18.0 0.00 0.00 0.00 62 1007.5
20260509081053 92 109 5.0 18.0 0.00 0.00 0.00 61 1007.7
20260509080553 93 91 11.0 16.0 0.00 0.00 0.00 61 1007.5
20260509080053 93 108 9.0 21.0 0.00 0.00 0.00 61 1007.4
20260509075553 93 116 7.0 21.0 0.00 0.00 0.00 60 1007.4
20260509074053 93 136 7.0 18.0 0.00 0.00 0.00 60 1007.7
20260509073553 93 102 15.0 21.0 0.00 0.00 0.00 60 1007.6
20260509072553 93 131 9.0 20.0 0.00 0.00 0.00 59 1007.8
20260509072053 93 120 9.0 20.0 0.00 0.00 0.00 58 1007.6
20260509071553 93 111 4.0 19.0 0.00 0.00 0.00 59 1007.9
20260509070553 93 139 9.0 21.0 0.00 0.00 0.00 58 1008.0
20260509070053 93 162 2.0 18.0 0.00 0.00 0.00 62 1008.1
20260509065053 93 106 4.0 18.0 0.00 0.00 0.00 60 1008.2
20260509064554 94 92 7.0 19.0 0.00 0.00 0.00 57 1008.2
20260509064053 94 108 10.0 20.0 0.00 0.00 0.00 56 1008.0
20260509063553 93 126 5.0 20.0 0.00 0.00 0.00 60 1008.3
20260509063054 93 131 8.0 18.0 0.00 0.00 0.00 58 1008.4
20260509062553 94 104 3.0 18.0 0.00 0.00 0.00 57 1008.3
20260509061553 94 159 4.0 14.0 0.00 0.00 0.00 58 1008.4
20260509061053 94 135 4.0 15.0 0.00 0.00 0.00 58 1008.4
20260509060553 94 148 10.0 15.0 0.00 0.00 0.00 57 1008.4
20260509055053 94 125 5.0 15.0 0.00 0.00 0.00 57 1008.7
20260509054553 94 131 11.0 19.0 0.00 0.00 0.00 56 1008.7
20260509053553 93 166 7.0 18.0 0.00 0.00 0.00 57 1008.9
20260509053054 95 119 9.0 13.0 0.00 0.00 0.00 54 1008.9
20260509052553 94 155 6.0 16.0 0.00 0.00 0.00 56 1008.9
20260509052053 94 103 5.0 16.0 0.00 0.00 0.00 57 1009.1
20260509051553 94 82 11.0 17.0 0.00 0.00 0.00 56 1009.1
20260509051053 94 127 14.0 17.0 0.00 0.00 0.00 58 1009.2
20260509050553 94 126 7.0 16.0 0.00 0.00 0.00 57 1009.4
20260509050053 94 138 9.0 16.0 0.00 0.00 0.00 56 1009.4
20260509045053 94 101 11.0 16.0 0.00 0.00 0.00 55 1009.8
20260509044553 94 158 3.0 11.0 0.00 0.00 0.00 57 1009.8
20260509044053 94 192 2.0 13.0 0.00 0.00 0.00 57 1010.1
20260509043553 93 196 2.0 13.0 0.00 0.00 0.00 58 1010.0
20260509043053 93 151 10.0 13.0 0.00 0.00 0.00 57 1010.1
20260509042553 93 127 10.0 13.0 0.00 0.00 0.00 57 1010.2
20260509042053 93 159 4.0 13.0 0.00 0.00 0.00 57 1010.4
20260509041553 93 141 9.0 12.0 0.00 0.00 0.00 57 1010.4
20260509041052 94 133 10.0 15.0 0.00 0.00 0.00 56 1010.6
20260509040553 94 117 7.0 15.0 0.00 0.00 0.00 55 1010.6
20260509040053 93 32 3.0 15.0 0.00 0.00 0.00 57 1010.6
20260509035053 93 141 9.0 16.0 0.00 0.00 0.00 57 1010.7
20260509034553 94 180 3.0 11.0 0.00 0.00 0.00 58 1010.8
20260509034053 93 224 2.0 11.0 0.00 0.00 0.00 60 1010.7
20260509033553 93 140 6.0 14.0 0.00 0.00 0.00 59 1010.9
20260509033053 92 92 5.0 14.0 0.00 0.00 0.00 59 1011.1
20260509032553 92 105 10.0 14.0 0.00 0.00 0.00 61 1011.1
20260509032053 92 122 7.0 13.0 0.00 0.00 0.00 61 1011.2
20260509031553 92 196 5.0 13.0 0.00 0.00 0.00 63 1011.0
20260509031053 92 150 6.0 14.0 0.00 0.00 0.00 62 1011.0
20260509030553 92 129 12.0 14.0 0.00 0.00 0.00 61 1011.0
20260509025553 92 120 6.0 15.0 0.00 0.00 0.00 60 1011.4
20260509024553 91 106 11.0 19.0 0.00 0.00 0.00 62 1011.3
20260509024053 92 166 2.0 11.0 0.00 0.00 0.00 62 1011.5
20260509023053 91 139 5.0 15.0 0.00 0.00 0.00 62 1011.6
20260509022553 91 98 9.0 15.0 0.00 0.00 0.00 63 1011.6
20260509022053 92 97 7.0 15.0 0.00 0.00 0.00 61 1011.8
20260509021554 91 114 5.0 15.0 0.00 0.00 0.00 64 1011.7
20260509020553 91 126 4.0 16.0 0.00 0.00 0.00 65 1012.0
20260509020053 91 128 4.0 12.0 0.00 0.00 0.00 63 1012.1
20260509015553 91 185 5.0 14.0 0.00 0.00 0.00 66 1012.1
20260509015053 90 81 4.0 14.0 0.00 0.00 0.00 66 1012.1
20260509014553 91 100 8.0 11.0 0.00 0.00 0.00 64 1011.9
20260509013553 90 105 3.0 11.0 0.00 0.00 0.00 67 1012.0
20260509013053 90 111 7.0 11.0 0.00 0.00 0.00 65 1011.9
20260509012553 91 156 4.0 13.0 0.00 0.00 0.00 66 1012.0
20260509012053 89 88 0.0 13.0 0.00 0.00 0.00 68 1012.0
20260509011553 89 112 3.0 13.0 0.00 0.00 0.00 69 1012.0
20260509010553 89 88 6.0 12.0 0.00 0.00 0.00 68 1012.3
20260509010053 89 172 4.0 12.0 0.00 0.00 0.00 68 1012.2
20260509005553 89 97 7.0 14.0 0.00 0.00 0.00 68 1012.3
20260509005053 89 100 7.0 14.0 0.00 0.00 0.00 69 1012.1
20260509004553 89 117 4.0 11.0 0.00 0.00 0.00 69 1012.2
20260509004054 89 82 8.0 11.0 0.00 0.00 0.00 69 1011.9
20260509003553 89 97 8.0 13.0 0.00 0.00 0.00 69 1012.2
20260509003053 88 154 7.0 13.0 0.00 0.00 0.00 71 1012.1
20260509002553 88 84 7.0 11.0 0.00 0.00 0.00 69 1012.2
20260509002054 88 163 4.0 10.0 0.00 0.00 0.00 70 1012.2
20260509001553 88 86 6.0 10.0 0.00 0.00 0.00 69 1012.1
20260509000553 88 64 10.0 11.0 0.00 0.00 0.00 70 1012.1
20260509000054 88 190 3.0 13.0 0.00 0.00 0.00 70 1012.1
20260508235553 87 88 4.0 13.0 0.00 0.00 0.00 71 1011.8
20260508235053 87 96 6.0 12.0 0.00 0.00 0.00 72 1011.8
20260508234553 87 39 4.0 11.0 0.00 0.00 0.00 72 1011.9
20260508234053 87 78 4.0 11.0 0.00 0.00 0.00 72 1011.5
20260508233053 86 123 4.0 13.0 0.00 0.00 0.00 73 1011.5
20260508232553 86 97 6.0 11.0 0.00 0.00 0.00 72 1011.5
20260508231553 86 74 6.0 9.0 0.00 0.00 0.00 72 1011.4
20260508231054 86 96 5.0 11.0 0.00 0.00 0.00 72 1011.5
20260508230553 86 107 6.0 12.0 0.00 0.00 0.00 73 1011.4
20260508230053 85 75 5.0 12.0 0.00 0.00 0.00 73 1011.3
20260508225554 85 79 7.0 12.0 0.00 0.00 0.00 73 1011.2
20260508225053 86 108 8.0 12.0 0.00 0.00 0.00 73 1011.1
20260508224553 85 85 3.0 9.0 0.00 0.00 0.00 75 1011.1
20260508224053 85 91 5.0 9.0 0.00 0.00 0.00 75 1011.0
20260508223553 85 105 4.0 7.0 0.00 0.00 0.00 75 1010.8
20260508223052 85 119 3.0 11.0 0.00 0.00 0.00 77 1010.8
20260508222553 85 101 5.0 11.0 0.00 0.00 0.00 76 1010.6
20260508222053 84 104 11.0 11.0 0.00 0.00 0.00 77 1010.7
20260508221554 84 99 9.0 11.0 0.00 0.00 0.00 78 1010.6
20260508221053 84 126 3.0 11.0 0.00 0.00 0.00 78 1010.5
20260508220553 84 103 4.0 10.0 0.00 0.00 0.00 78 1010.4
20260508220053 84 97 4.0 10.0 0.00 0.00 0.00 78 1010.3
20260508215553 83 106 6.0 9.0 0.00 0.00 0.00 79 1010.3
20260508215054 83 118 5.0 8.0 0.00 0.00 0.00 80 1010.4
20260508214553 83 93 3.0 8.0 0.00 0.00 0.00 80 1010.1
20260508213052 83 92 7.0 12.0 0.00 0.00 0.00 79 1010.1
20260508212553 83 88 5.0 12.0 0.00 0.00 0.00 79 1010.1
20260508212053 83 107 3.0 11.0 0.00 0.00 0.00 79 1010.0
20260508211553 83 132 2.0 10.0 0.00 0.00 0.00 79 1010.1
20260508211053 83 148 4.0 10.0 0.00 0.00 0.00 79 1009.9
20260508210053 83 96 5.0 12.0 0.00 0.00 0.00 79 1010.1
20260508205553 83 94 7.0 12.0 0.00 0.00 0.00 78 1010.1
20260508205053 83 91 6.0 12.0 0.00 0.00 0.00 78 1010.1
20260508204553 83 126 8.0 13.0 0.00 0.00 0.00 79 1009.9
20260508204053 83 119 4.0 14.0 0.00 0.00 0.00 79 1010.0
20260508202552 83 105 3.0 13.0 0.00 0.00 0.00 79 1009.8
20260508202052 83 109 5.0 11.0 0.00 0.00 0.00 78 1009.8
20260508201053 83 118 4.0 13.0 0.00 0.00 0.00 78 1009.8
20260508200553 83 88 10.0 13.0 0.00 0.00 0.00 78 1009.7
20260508200053 83 102 8.0 13.0 0.00 0.00 0.00 78 1009.9
20260508195553 83 94 6.0 14.0 0.00 0.00 0.00 78 1009.8
20260508195053 83 100 9.0 14.0 0.00 0.00 0.00 78 1009.8
20260508194053 83 113 3.0 11.0 0.00 0.00 0.00 78 1009.6
20260508193553 83 100 11.0 11.0 0.00 0.00 0.00 78 1009.7
20260508192053 83 123 5.0 11.0 0.00 0.00 0.00 78 1009.8
20260508191553 83 88 4.0 11.0 0.00 0.00 0.00 78 1009.9
20260508191053 83 109 9.0 11.0 0.00 0.00 0.00 78 1009.8
20260508190553 83 95 6.0 11.0 0.00 0.00 0.00 79 1009.8
20260508190053 83 112 5.0 11.0 0.00 0.00 0.00 79 1009.8
20260508185553 83 120 4.0 12.0 0.00 0.00 0.00 79 1009.8
20260508185053 83 114 3.0 12.0 0.00 0.00 0.00 78 1009.8
20260508184553 83 143 5.0 12.0 0.00 0.00 0.00 78 1009.9
20260508184053 84 133 4.0 13.0 0.00 0.00 0.00 78 1009.8
20260508183553 84 96 4.0 13.0 0.00 0.00 0.00 78 1009.9
20260508183054 84 129 4.0 11.0 0.00 0.00 0.00 78 1009.9
20260508182554 84 133 2.0 11.0 0.00 0.00 0.00 78 1009.9
20260508181552 84 119 6.0 13.0 0.00 0.00 0.00 77 1010.1
20260508181053 84 136 6.0 13.0 0.00 0.00 0.00 77 1009.9
20260508180554 84 86 7.0 14.0 0.00 0.00 0.00 78 1010.1
20260508180053 84 83 5.0 14.0 0.00 0.00 0.00 78 1009.9
20260508175553 84 95 6.0 12.0 0.00 0.00 0.00 78 1010.2
20260508175053 84 132 4.0 13.0 0.00 0.00 0.00 78 1010.2
20260508174553 84 118 2.0 13.0 0.00 0.00 0.00 78 1010.4
20260508174053 84 133 4.0 13.0 0.00 0.00 0.00 78 1010.2
20260508173053 84 80 4.0 10.0 0.00 0.00 0.00 78 1010.6
20260508172553 84 108 4.0 11.0 0.00 0.00 0.00 77 1010.4
20260508172053 84 98 10.0 11.0 0.00 0.00 0.00 77 1010.4
20260508171553 84 95 7.0 15.0 0.00 0.00 0.00 77 1010.4
20260508170553 84 96 3.0 14.0 0.00 0.00 0.00 76 1010.6
20260508170053 84 108 6.0 14.0 0.00 0.00 0.00 76 1010.3
20260508165553 84 89 4.0 14.0 0.00 0.00 0.00 77 1010.3
20260508164553 84 109 5.0 15.0 0.00 0.00 0.00 75 1010.7
20260508164053 84 108 9.0 15.0 0.00 0.00 0.00 76 1010.6
20260508163552 84 107 4.0 14.0 0.00 0.00 0.00 76 1010.6
20260508163053 84 108 5.0 14.0 0.00 0.00 0.00 76 1010.8
20260508162053 84 116 7.0 15.0 0.00 0.00 0.00 76 1011.0
20260508161553 84 97 11.0 15.0 0.00 0.00 0.00 75 1010.8
20260508161053 84 97 13.0 15.0 0.00 0.00 0.00 76 1010.9
20260508160553 84 88 12.0 13.0 0.00 0.00 0.00 76 1011.0
20260508160053 84 117 5.0 17.0 0.00 0.00 0.00 76 1011.0
20260508155553 84 77 10.0 17.0 0.00 0.00 0.00 76 1010.9
20260508155053 84 117 11.0 14.0 0.00 0.00 0.00 76 1010.8
20260508154053 84 107 5.0 15.0 0.00 0.00 0.00 76 1011.0
20260508153552 84 96 10.0 15.0 0.00 0.00 0.00 76 1011.0
20260508153053 84 108 4.0 16.0 0.00 0.00 0.00 76 1011.3
20260508152553 84 99 9.0 16.0 0.00 0.00 0.00 76 1011.3
20260508151553 84 102 6.0 14.0 0.00 0.00 0.00 76 1011.4
20260508151052 84 88 6.0 14.0 0.00 0.00 0.00 75 1011.2
20260508150553 84 99 6.0 15.0 0.00 0.00 0.00 75 1011.4
20260508145553 85 105 7.0 16.0 0.00 0.00 0.00 75 1011.5
20260508145053 85 92 3.0 13.0 0.00 0.00 0.00 75 1011.7
20260508144554 85 140 5.0 14.0 0.00 0.00 0.00 74 1011.6
20260508143552 85 117 9.0 10.0 0.00 0.00 0.00 74 1011.7
20260508143053 85 126 4.0 13.0 0.00 0.00 0.00 75 1011.8
20260508142553 85 102 4.0 13.0 0.00 0.00 0.00 75 1011.8
20260508141553 85 95 3.0 16.0 0.00 0.00 0.00 75 1011.8
20260508141053 85 96 4.0 16.0 0.00 0.00 0.00 75 1011.7
20260508140053 85 79 3.0 15.0 0.00 0.00 0.00 75 1011.6
20260508135553 85 110 10.0 16.0 0.00 0.00 0.00 74 1011.5
20260508135053 85 98 5.0 16.0 0.00 0.00 0.00 73 1011.5
20260508134553 85 91 10.0 16.0 0.00 0.00 0.00 73 1011.7
20260508134053 85 75 5.0 16.0 0.00 0.00 0.00 73 1011.6
20260508133552 86 108 12.0 16.0 0.00 0.00 0.00 72 1011.6
20260508132553 86 152 5.0 13.0 0.00 0.00 0.00 72 1011.3
20260508131553 86 97 6.0 18.0 0.00 0.00 0.00 71 1011.2
20260508131053 86 123 4.0 13.0 0.00 0.00 0.00 72 1011.2
20260508130053 86 146 5.0 12.0 0.00 0.00 0.00 72 1011.2
20260508125553 86 72 3.0 9.0 0.00 0.00 0.00 72 1011.0
20260508125053 86 91 3.0 12.0 0.00 0.00 0.00 72 1011.0
20260508124553 86 105 5.0 12.0 0.00 0.00 0.00 72 1010.8
20260508124053 86 101 6.0 13.0 0.00 0.00 0.00 72 1011.0
20260508123553 86 93 8.0 13.0 0.00 0.00 0.00 72 1010.7
20260508123053 86 86 3.0 11.0 0.00 0.00 0.00 72 1010.5
20260508122553 86 112 2.0 14.0 0.00 0.00 0.00 71 1010.7
20260508122053 87 76 9.0 14.0 0.00 0.00 0.00 70 1010.6
20260508121053 87 158 2.0 14.0 0.00 0.00 0.00 71 1010.4
20260508120553 87 129 6.0 14.0 0.00 0.00 0.00 71 1010.4
20260508120053 87 112 7.0 11.0 0.00 0.00 0.00 70 1010.0
20260508115553 87 108 6.0 11.0 0.00 0.00 0.00 71 1010.1
20260508115053 87 133 3.0 9.0 0.00 0.00 0.00 71 1009.8
20260508114554 87 127 3.0 11.0 0.00 0.00 0.00 70 1009.8
20260508114053 87 54 1.0 11.0 0.00 0.00 0.00 70 1009.9
20260508113553 87 177 2.0 13.0 0.00 0.00 0.00 70 1009.7
20260508112553 87 185 2.0 12.0 0.00 0.00 0.00 69 1009.8
20260508112055 88 134 1.0 12.0 0.00 0.00 0.00 68 1009.7
20260508111053 88 116 9.0 12.0 0.00 0.00 0.00 69 1009.4
20260508110553 88 118 5.0 10.0 0.00 0.00 0.00 69 1009.4
20260508110054 88 196 2.0 14.0 0.00 0.00 0.00 69 1009.3
20260508105553 88 213 1.0 14.0 0.00 0.00 0.00 68 1009.4
20260508105053 88 157 2.0 12.0 0.00 0.00 0.00 69 1009.0
20260508104553 88 159 3.0 12.0 0.00 0.00 0.00 69 1009.2
20260508104053 88 109 8.0 12.0 0.00 0.00 0.00 68 1009.0
20260508103553 88 176 2.0 12.0 0.00 0.00 0.00 67 1008.9
20260508103053 89 111 7.0 13.0 0.00 0.00 0.00 67 1008.7
20260508102053 89 156 6.0 14.0 0.00 0.00 0.00 68 1008.8
20260508101553 89 112 8.0 14.0 0.00 0.00 0.00 68 1008.7
20260508101053 89 140 5.0 14.0 0.00 0.00 0.00 67 1008.7
20260508100553 89 79 9.0 16.0 0.00 0.00 0.00 67 1008.6
20260508100053 89 104 7.0 16.0 0.00 0.00 0.00 67 1008.7
20260508095553 90 89 4.0 14.0 0.00 0.00 0.00 68 1008.4
20260508095053 90 149 3.0 14.0 0.00 0.00 0.00 68 1008.4
20260508094553 90 126 4.0 15.0 0.00 0.00 0.00 66 1008.1
20260508094054 91 70 4.0 15.0 0.00 0.00 0.00 65 1008.2
20260508093553 91 111 7.0 12.0 0.00 0.00 0.00 65 1008.0
20260508093053 91 103 3.0 16.0 0.00 0.00 0.00 64 1007.9
20260508092553 91 147 6.0 16.0 0.00 0.00 0.00 64 1007.9
20260508092053 91 114 5.0 18.0 0.00 0.00 0.00 63 1007.9